• Join FlightAware (Why Join?)
  • Login
  • US Flag 
09:14PM EDT


 

Airport Tracker/Info


-or-


 

Live Flight TrackerFlight Track Log ✈ SWA350 ✈ 15-Apr-2013 ✈ KMSY - KDAL

Flight Track Log - Related Links

Times and Time Zones

All times are in EDT time to prevent confusion due to time zone crossing. See the SWA350 flight status page for this flight to view local times or setup timezone preferences in your user account.

Time Position Orientation Groundspeed Altitude Reporting Facility
EDT Latitude Longitude Course Direction KTS MPH feet Rate Location/Type
09:31AM 29.9811 -90.2106 102° East 184 212 1,700  Level Houston Center
09:32AM 29.9758 -90.1697 98° East 218 251 3,000 2,220 Climbing Houston Center
09:32AM 29.9808 -90.1408 79° East 243 280 4,000 2,220 Climbing Houston Center
09:33AM 30.0186 -90.1297 14° North 244 281 5,300 2,520 Climbing Houston Center
09:34AM 30.0836 -90.1697 332° Northwest 261 300 8,200 2,520 Climbing Houston Center
09:35AM 30.1533 -90.2153 331° Northwest 279 321 10,600 1,980 Climbing Houston Center
09:36AM 30.4093 -90.6779 291° West  Level FlightAware Approximate
09:36AM 30.2047 -90.3061 303° West 329 379 12,300  Level Houston Center
09:37AM 30.2575 -90.4011 303° West 346 398 14,400 2,220 Climbing Houston Center
09:38AM 30.3164 -90.5011 304° West 367 422 16,900 2,220 Climbing Houston Center
09:39AM 30.3758 -90.6003 305° West 373 429 19,000 2,040 Climbing Houston Center
09:40AM 30.4494 -90.7261 304° West 386 444 21,200 1,920 Climbing Houston Center
09:41AM 30.5128 -90.8317 305° West 395 455 23,000 1,740 Climbing Houston Center
09:42AM 30.5775 -90.9400 305° West 403 464 24,800 1,560 Climbing Houston Center
09:43AM 30.6442 -91.0467 306° West 407 468 26,300 1,500 Climbing Houston Center
09:44AM 30.6942 -91.1653 296° West 412 474 28,000 1,740 Climbing Houston Center
09:45AM 30.7406 -91.2825 295° West 404 465 30,000 1,740 Climbing Houston Center
09:46AM 30.7928 -91.4169 294° West 386 444 31,600 1,500 Climbing Houston Center
09:47AM 30.8419 -91.5278 297° West 386 444 33,200 1,260 Climbing Houston Center
09:48AM 30.8867 -91.6378 295° West 380 437 34,200 1,140 Climbing Houston Center
09:49AM 30.9311 -91.7464 296° West 374 430 35,600 840 Climbing Houston Center
09:50AM 30.9744 -91.8536 295° West 369 425 36,000 180 Climbing Houston Center
09:51AM 31.0178 -91.9625 295° West 369 425 36,000  Level Houston Center
09:52AM 31.0708 -92.0925 296° West 370 426 36,000  Level Houston Center
09:53AM 31.1136 -92.2014 295° West 369 425 36,000  Level Houston Center
09:54AM 31.1575 -92.3117 295° West 372 428 36,000  Level Houston Center
09:55AM 31.2022 -92.4261 295° West 381 438 36,000  Level Houston Center
09:56AM 31.2564 -92.5419 299° West 397 457 36,000  Level Houston Center
09:57AM 31.3000 -92.6517 295° West 381 438 36,000  Level Houston Center
09:58AM 31.3386 -92.7664 292° West 368 423 36,000  Level Houston Center
09:59AM 31.3811 -92.8742 295° West 365 420 36,000  Level Houston Center
10:00AM 31.4236 -92.9817 295° West 364 419 36,000  Level Houston Center
10:01AM 31.4656 -93.0869 295° West 360 414 36,000  Level Houston Center
10:02AM 31.5147 -93.2142 294° West 358 412 36,000  Level Houston Center
10:04AM 31.5556 -93.3194 294° West 355 409 36,000  Level Houston Center
10:05AM 31.5967 -93.4253 295° West 357 411 36,000  Level Houston Center
10:06AM 31.6336 -93.5306 292° West 353 406 36,000  Level Houston Center
10:06AM 31.6544 -93.5967 290° West 354 407 36,000  Level Fort Worth Center
10:07AM 31.6933 -93.7047 293° West 354 407 36,000  Level Fort Worth Center
10:08AM 31.7297 -93.8108 292° West 354 407 36,000  Level Fort Worth Center
10:09AM 31.7642 -93.9194 290° West 349 402 36,000  Level Fort Worth Center
10:10AM 31.8025 -94.0256 293° West 349 402 36,000  Level Fort Worth Center
10:11AM 31.8408 -94.1317 293° West 349 402 36,000  Level Fort Worth Center
10:12AM 31.8750 -94.2406 290° West 354 407 36,000  Level Fort Worth Center
10:13AM 31.9197 -94.3639 293° West 366 421 36,000  Level Fort Worth Center
10:14AM 31.9558 -94.4753 291° West 366 421 36,000 -300 Level Fort Worth Center
10:15AM 31.9917 -94.5867 291° West 366 421 35,400 -840 Descending Fort Worth Center
10:16AM 32.0294 -94.6908 293° West 366 421 34,400 -1,020 Descending Fort Worth Center
10:17AM 32.0653 -94.7978 292° West 361 415 33,400 -1,020 Descending Fort Worth Center
10:18AM 32.1008 -94.9069 291° West 361 415 32,400 -960 Descending Fort Worth Center
10:19AM 32.1364 -95.0164 291° West 361 415 31,500 -900 Descending Fort Worth Center
10:20AM 32.1717 -95.1283 290° West 367 422 30,600 -900 Descending Fort Worth Center
10:21AM 32.2028 -95.2208 292° West 372 428 29,700 -1,740 Descending Fort Worth Center
10:22AM 32.2489 -95.3575 292° West 372 428 27,200 -2,400 Descending Fort Worth Center
10:23AM 32.2881 -95.4647 293° West 362 417 25,000 -2,160 Descending Fort Worth Center
10:24AM 32.3189 -95.5722 289° West 357 411 22,900 -2,100 Descending Fort Worth Center
10:25AM 32.3539 -95.6772 292° West 345 397 20,900 -2,040 Descending Fort Worth Center
10:26AM 32.3844 -95.7800 289° West 345 397 18,900 -2,100 Descending Fort Worth Center
10:27AM 32.4192 -95.8825 292° West 345 397 16,700 -2,040 Descending Fort Worth Center
10:28AM 32.4517 -95.9856 291° West 340 391 14,900 -1,800 Descending Fort Worth Center
10:29AM 32.4797 -96.0736 291° West 335 386 13,100 -1,980 Descending Fort Worth Center
10:30AM 32.5122 -96.1817 290° West 322 371 11,000 -1,560 Descending Fort Worth Center
10:31AM 32.5422 -96.2675 293° West 317 365 10,000 -1,200 Descending Fort Worth Center
10:32AM 32.5786 -96.3606 295° West 292 336 8,700 -1,440 Descending Fort Worth Center
10:33AM 32.6231 -96.4367 305° West 287 330 7,200 -1,500 Descending Fort Worth Center
10:34AM 32.6631 -96.5103 303° West 273 314 5,800 -1,140 Descending Fort Worth Center
10:35AM 32.7219 -96.5714 319° Northwest 268 308 5,000 -600 Descending Fort Worth Center
10:36AM 32.7808 -96.6278 321° Northwest 274 315 4,600 -540 Descending Fort Worth Center
10:37AM 32.8333 -96.6833 318° Northwest 272 313 4,000 -360 Descending Dallas / Fort Worth TRACON
10:38AM 32.9000 -96.7333 328° Northwest 245 282 3,900 -480 Descending Dallas / Fort Worth TRACON
10:39AM 32.9333 -96.7833 308° West 227 261 3,100 -540 Descending Dallas / Fort Worth TRACON
10:40AM 32.9500 -96.8500 287° West 202 232 3,000 -600 Descending Dallas / Fort Worth TRACON
10:41AM 32.9500 -96.9000 270° West 221 254 2,000 -600 Descending Dallas / Fort Worth TRACON
10:42AM 32.9167 -96.9167 203° Southwest 155 178 1,800 -420 Descending Dallas / Fort Worth TRACON
10:43AM 32.8833 -96.9000 157° South 134 154 1,200 -660 Descending Dallas / Fort Worth TRACON
10:45AM 32.8471 -96.8518 270° West  Level Estimated
10:52AM 32.8471 -96.8518 270° West  Level Estimated